Regional Weather Roundup
Issued by NWS

Home | Current Version | Previous Version | Graphics & Text | Print | Product List | Glossary Off
Versions: 1 2 3 4 5 6 7 8 9 10 11 12 13 14 15 16 17 18 19 20 21 22 23 24 25 26 27 28 29 30 31 32 33 34 35 36 37 38 39 40 41 42 43 44 45 46 47 48 49 50

000
ASUS43 KMKX 250900
RWRWI

WISCONSIN REGIONAL WEATHER ROUNDUP
NATIONAL WEATHER SERVICE MILWAUKEE/SULLIVAN WI
400 AM CDT FRI APR 25 2014

NOTE: "FAIR" INDICATES FEW OR NO CLOUDS BELOW 12,000 FEET WITH NO
SIGNIFICANT WEATHER AND/OR OBSTRUCTIONS TO VISIBILITY.

WIZ001-002-006>008-014>016-023>028-251000-
NORTHWEST WISCONSIN

CITY           SKY/WX    TMP DP  RH WIND       PRES   REMARKS
SUPERIOR ARPT  CLOUDY    32  32 100 S5        29.69S FOG     WCI  27
ASHLAND        CLOUDY    34  33  96 W10       29.68R WCI  26
HAYWARD        CLOUDY    37  36  96 VRB3      29.68S
SIREN          CLOUDY    37  37  99 W6        29.70S FOG     WCI  33
RICE LAKE      CLOUDY    38  36  94 W3        29.72S
LADYSMITH      MOCLDY    38  37  93 SW3       29.70S
EAU CLAIRE     NOT AVBL
MENOMONIE      CLOUDY    38  37  94 W3        29.72R FOG
NEW RICHMOND   CLOUDY    36  36 100 CALM      29.72S FOG
OSCEOLA        CLOUDY    37  37 100 CALM      29.74S
$$

WIZ003>005-009-010-017-018-251000-
NORTH CENTRAL WISCONSIN

CITY           SKY/WX    TMP DP  RH WIND       PRES   REMARKS
WOODRUFF       DRIZZLE   37  35  93 S6        29.66S WCI  32
RHINELANDER    CLOUDY    36  35  96 SE5       29.67F FOG     WCI  32
EAGLE RIVER    DRIZZLE   36  36 100 CALM      29.67S
LAND O LAKES   MIX PCPN  35  35 100 S5        29.67F WCI  31
PHILLIPS       CLOUDY    39  38  96 SW8       29.65S WCI  33
TOMAHAWK       CLOUDY    37  36  96 CALM      29.66F FOG
MEDFORD        CLOUDY    39  37  93 W7        29.68R WCI  34
MERRILL        CLOUDY    38  38 100 CALM      29.68S FOG
$$

WIZ029-030-035-036-043>047-251000-
CENTRAL WISCONSIN

CITY           SKY/WX    TMP DP  RH WIND       PRES   REMARKS
WAUSAU         CLOUDY    39  39 100 S3        29.68R FOG
MOSINEE        CLOUDY    37  37 100 CALM      29.70R FOG
MARSHFIELD     CLOUDY    41  37  86 NW9       29.70S
STEVENS POINT  CLOUDY    38  38  99 CALM      29.70R FOG
WAUPACA        CLOUDY    43  41  93 W3        29.70R FOG
WAUTOMA        NOT AVBL
WISC RAPIDS    CLOUDY    42  38  85 W13G18    29.72R
CAMP DOUGLAS   NOT AVBL
$$

WIZ011>013-019>022-031-037>040-048>050-251000-
NORTHEAST WISCONSIN

CITY           SKY/WX    TMP DP  RH WIND       PRES   REMARKS
ANTIGO         CLOUDY    36  36 100 SE7       29.68S FOG     WCI  30
STURGEON BAY   CLOUDY    37  34  87 SE9G16    29.71F WCI  31
GREEN BAY      CLOUDY    40  37  89 SE8       29.70F WCI  34
MANITOWOC      NOT AVBL
APPLETON       CLOUDY    41  36  81 S5        29.68S
CLINTONVILLE   CLOUDY    39  37  93 E3        29.69R
OSHKOSH        CLOUDY    44  40  85 CALM      29.68S
$$

WIZ032>034-041-042-053>061-251000-
SOUTHWEST WISCONSIN

CITY           SKY/WX    TMP DP  RH WIND       PRES   REMARKS
LA CROSSE      CLEAR     40  37  89 SW5       29.74S
SPARTA         CLOUDY    43  38  85 W3        29.74S
VIROQUA        CLOUDY    42  41  98 NW8       29.73R
BOSCOBEL       MOCLDY    44  39  82 NW3       29.75R
PRAIRIE DU CHI PTCLDY    40  38  95 CALM      29.76R FOG
PLATTEVILLE    FAIR      42  40  91 NW6       29.73R
$$

WIZ056-057-062-063-064-067-068-251000-
SOUTH CENTRAL WISCONSIN

CITY           SKY/WX    TMP DP  RH WIND       PRES   REMARKS
BARABOO/DELLS  CLOUDY    43  39  87 NW6       29.72R
LONE ROCK      NOT AVBL
WATERTOWN      CLOUDY    43  42  95 NW3       29.68R
MADISON        CLOUDY    45  41  86 NW12      29.70R
MIDDLETON      PTSUNNY   46  42  88 NW8       29.71R
MONROE         CLOUDY    45  45 100 NW8       29.70R
JANESVILLE     CLOUDY    48  45  87 NW8       29.68R FOG
$$

WIZ051-052-058>065-066-070>072-251000-
SOUTHEAST WISCONSIN

CITY           SKY/WX    TMP DP  RH WIND       PRES   REMARKS
MILWAUKEE      CLOUDY    43  39  86 NE5       29.69R
WAUKESHA       CLOUDY    41  39  93 CALM      29.68S FOG
MILWAUKEE/TIMM DRIZZLE   39  36  87 N3        29.69S
RACINE         CLOUDY    43  39  86 SE7       29.68F
BURLINGTON     CLOUDY    42  41  95 MISG      29.67R
KENOSHA        CLOUDY    44  41  89 NE6       29.66F
FOND DU LAC    CLOUDY    43  40  89 CALM      29.69R
SHEBOYGAN      CLOUDY    39  36  89 S3        29.70S
WEST BEND      CLOUDY    39  36  87 E5        29.68F
JUNEAU         CLOUDY    43  41  93 CALM      29.70R FOG
$$

LSZ147-162-251000-
LAKE SUPERIOR

STATION/POSITION TIME  TEMP    WIND        PRES    WAVE
                       AIR SEA DIR/SP/G            HT/PER
                 (UTC) (F)     (DEG/KT/KT) (MB)    (FT/S)
DEVILS ISLAND    0800   34     150/  6/  8 1004.6F
PORT WING        0800   33     230/  7/ 12 1005.1R
SAXON HARBOR     0800          210/  5/  8 1004.1
$$

LMZ867-665-643>646-251000-
LAKE MICHIGAN

STATION/POSITION TIME  TEMP    WIND        PRES    WAVE
                       AIR SEA DIR/SP/G            HT/PER
                 (UTC) (F)     (DEG/KT/KT) (MB)    (FT/S)
NORTHPORT PIER   0800   36      90/ 16/ 19 1007.1F
SISTER BAY       0808   34     110/ 12/ 17   N/A
KEWAUNEE LAKESHO 0800   37      80/  2/  4 1006.8F
SHEBOYGAN LAKESH 0800   41     190/  9/ 11 1006.4S
PORT WASHINGTON  0840   40     170/  3/  4 1006.4R
MILWAUKEE LAKESH 0800   41      20/  1/  4   N/A
KENOSHA   LAKESH 0800   44     250/  5/  8   N/A
$$

TC  - TEMPERATURE IN CELSIUS
VSB - VISIBILITY IN STATUTE MILES
WCI - WIND CHILL INDEX
HX  - HEAT INDEX




USA.gov is the U.S. government's official web portal to all federal, state and local government web resources and services.